THOR ABLESTAR DEB, 152

Orbit data source: Space-Track

THOR ABLESTAR DEB, 152 is space debris in LEO originally from a launch on Thu, 29 Jun 1961 UTC launched from the Air Force Eastern Test Range (AFETR). Debris objects in space refer to the collection of defunct objects orbiting the Earth. Examples of debris include non-operational satellites, rocket bodies, and fragments generated from explosions, collisions, or faulty payload assembly.

Loading next visibility...
Identifier
152, 1961-015AN
Orbit
LEO
Country
Flag of USUS
Related business
Manufacturer
Unknown
Mission
Spacecraft
Bus & Motor
Unknown
Mass
Unknown
Launch date (UTC)
1961-06-29 (65 years ago)
Launch vehicle
Unknown
Launch site
Air Force Eastern Test Range (AFETR)
Object type
Payload
Rocket body
Debris
Shape & HBR
Unknown shape, 0.2 m
Radar Cross Section
Medium (>0.1 m² and <1 m²)

Expand to show TLE details & history
Last TLE update: 6 hours ago

TLE from 6 hours ago
0 THOR ABLESTAR DEB
1 00152U 61015AN  26037.96111793  .00000450  00000-0  26148-3 0  9999
2 00152  66.5946 291.4505 0157375 284.4799  73.8873 14.11434990307702
Epoch: 2026-02-06T23:04Z
TLE epoch observation values (Epoch: 2026-02-06T23:04:00.589Z)
Latitude
0.00001°
Longitude
168.35656°
Altitude
826.618 km
Speed
7.455 km/s
True Right ascension
19h 25m 48s
True Declination
0° 00' 00"
Sunlit
Object was in daylight at epoch
Visualization orbit readout
Latitude
Unknown
Longitude
Unknown
Altitude
Unknown
Speed
Unknown
Apparent Right ascension
Unknown
Apparent Declination
Unknown
Sunlit
N/A
Visualization observer readout
Local Sidereal Time
07:12:55
Azimuth
Unknown
Elevation
Unknown
Doppler factor
Unknown
Orbital elements
Apogee altitude
966.664 km
Perigee altitude
739.068 km
Semi-major axis
7,231.003 km
Eccentricity
0.01574
Inclination
66.5946°
RAAN
291.4505°
Arg. of periapsis
284.4799°
True anomaly
75.62908°
Mean anomaly
73.8873°
Eccentric anomaly
74.75727°
Mean motion
3.52976 °/min
Orbital period
101.99 mins
BSTAR
0.00026148
Loading maneuver chart data...
Computing Atmospheric mass density...

Documentation

Showing up to 5 results
|